星链-36035(STARLINK-36035)

导读 | 豆包AI

STARLINK-36035是美国SpaceX星链星座的卫星,于2025年12月14日发射入轨,隶属于星链互联网星座组网计划。作为星链低轨星座的组成部分,它主要依托近地轨道部署,为全球范围提供高速低延迟的宽带互联网服务,补充完善星链星座的全球覆盖能力,进一步拓展星链的服务规模与覆盖范围。

基本信息
目录编号:
67082
目录名称:
STARLINK-36035
国际标识:
2025-298H
轨道中心:
EARTH
卫星名称:
星链-36035
卫星全名:
星链-36035(STARLINK-36035)
卫星状态:
在轨 (已飞行90 天)
发射日期:
2025-12-14 UTC
国别 :
美国 (US)
星等 :
--
轨道信息
数据来源 国际轨道数据
星历时间: 2026-03-13T22:00:01+0800
13小时前
查看轨道信息
半长轴: 6950.258km
偏心率: 0.0003331
轨道倾角: 70.001°
近地点辐角 286.331°
升交点赤经 4.566°
平近点角 31.715°
近地点: 569.805km
远地点: 574.437km
周期: 96.108分钟
每日圈数: 14.983092
详细信息
固有亮度:
5
最大亮度:
2.5
卫星平台:
Starlink V1.0
覆盖范围:
全球
运营商:
太空探索技术公司
运营商所在国:
美国
制造商(研发单位):
太空探索技术公司
制造商所在国:
美国
使用方式:
暂无
卫星简介
Starlink 计划是 SpaceX 推出的全球卫星互联网项目,通过发射低轨道卫星,为全球尤其是偏远地区提供高速、低延迟的互联网服务。自 2019 年起,Starlink 已部署数千颗卫星,旨在缩小全球数字鸿沟,推动互联网普及。该项目还为军事、航空等行业提供通信支持,带来广泛经济效益。
2D轨道图
3D轨道图
轨道高度分析图
轨道倾角分析图
轨道综合分析图
查看轨道综合分析图